Location: Unspecified
(33.9239°N, 118.0544°W)
Time: 16:19:39
(UTC-07:00)

Cosmos 1674 - Visible Passes

Search period start: 25 April 2015 00:00
Search period end: 05 May 2015 00:00
Orbit: 508 x 533 km, 82.5° (Epoch: 25 April)

Date Brightness Start Highest point End Pass type
(mag) Time Alt. Az. Time Alt. Az. Time Alt. Az.
25 Apr 4.8 05:17:56 10° SSE 05:21:13 29° E 05:24:35 10° NNE visible
26 Apr 5.1 05:04:34 10° SE 05:07:39 24° E 05:10:51 10° NE visible
27 Apr 5.3 04:51:15 10° SE 04:54:05 21° E 04:57:03 10° NE visible
28 Apr 5.5 04:38:00 10° SE 04:40:31 18° E 04:43:11 10° NE visible
29 Apr 5.6 04:24:49 10° ESE 04:26:57 15° E 04:29:14 10° NE visible
30 Apr 5.7 04:11:46 10° ESE 04:13:21 13° E 04:15:08 10° ENE visible
01 May 5.9 03:59:08 10° E 03:59:45 10° E 04:00:37 10° ENE visible
01 May 3.3 05:31:42 10° SSW 05:35:15 36° W 05:38:49 10° NNW visible
02 May 3.1 05:17:56 10° SSW 05:21:35 43° W 05:25:17 10° N visible
03 May 2.9 05:04:11 10° SSW 05:07:55 53° W 05:11:42 10° N visible
04 May 2.7 04:51:11 15° SSW 04:54:15 65° W 04:58:06 10° N visible
